Wind_Speed
35 35 34 33 32 31 29 26 24 23 21 19 18 17 15 14 13 13 13 12 12 12 12 12 12 13 14 15 17 19 21 23 25 27 29 30 32 33 35 35 36 37 38 38 39 39 41 43 45 44 44 44 44 45 46 47 48 49 50 52 54 54 55 56 56 58 61 64 67 68 69 69 70 72 75 75 76 74 72 70 68 66 65 68 66 56 51
34 33 32 31 29 27 25 23 21 20 18 18 17 15 13 12 12 12 12 12 12 12 12 13 13 14 15 15 16 17 19 21 23 25 26 28 29 31 32 33 34 35 37 38 40 40 41 42 44 44 43 44 45 46 47 48 49 51 51 53 54 55 57 58 57 57 59 62 66 68 69 69 70 72 73 73 72 71 70 69 67 64 61 61 61 52 47
32 31 29 27 25 23 22 20 19 18 17 16 15 13 11 11 11 12 12 12 13 13 13 14 15 16 17 17 18 19 21 22 24 26 27 28 30 31 32 34 35 36 38 39 40 41 40 40 42 43 43 44 46 47 48 50 51 52 53 54 55 56 58 60 60 59 59 60 62 63 63 64 66 67 69 70 69 69 68 67 64 60 54 53 57 54 49
29 27 25 24 22 20 19 18 17 16 16 15 13 11 10 11 12 12 13 14 14 15 15 16 17 18 19 20 21 22 24 25 26 28 29 30 32 33 34 35 36 37 38 39 39 40 40 40 41 43 44 45 47 48 50 51 52 54 54 55 55 56 58 61 61 61 62 62 62 62 60 60 61 64 67 67 66 64 63 61 58 56 52 51 57 60 55
25 23 22 20 19 18 17 16 16 16 15 14 12 11 11 12 13 14 14 15 16 17 18 18 19 20 21 22 23 25 26 28 28 29 31 32 33 34 35 35 36 37 37 38 39 39 40 41 42 43 45 47 48 50 51 52 54 55 55 55 55 55 56 59 60 61 63 63 62 61 60 60 61 63 62 60 58 57 57 57 56 57 56 54 58 63 62
21 20 19 18 16 15 15 15 15 15 14 12 11 11 12 13 14 15 16 17 18 19 20 21 22 23 24 25 26 27 28 29 30 31 32 32 33 34 34 34 35 36 36 37 38 39 41 43 44 45 47 48 49 51 52 53 54 55 55 55 55 54 54 56 56 57 60 62 61 61 60 59 59 57 54 51 52 53 55 57 59 60 60 59 60 64 67
18 17 16 15 15 15 15 15 15 14 13 12 12 12 13 15 16 17 18 19 20 21 22 23 24 25 26 26 27 28 29 30 31 31 32 32 32 32 33 34 34 35 36 37 38 40 42 44 45 46 48 49 50 51 53 54 54 54 55 55 54 53 52 53 53 53 58 61 59 57 55 52 52 53 51 51 53 56 58 60 62 63 63 64 65 67 70
16 15 15 14 14 14 15 14 13 13 13 12 13 14 15 16 17 19 20 21 22 23 24 25 26 26 27 27 28 28 29 30 30 30 30 31 31 32 32 33 34 35 37 38 39 40 42 43 45 46 48 49 50 50 52 53 53 54 53 53 53 51 50 51 49 48 53 55 51 50 49 48 50 52 53 54 57 60 62 64 66 66 66 68 70 72 74
14 14 14 14 14 14 14 13 12 12 12 13 14 15 16 18 19 20 21 23 23 24 25 25 26 27 27 27 27 28 28 28 29 29 29 30 31 32 33 33 35 35 37 38 39 40 41 43 44 45 46 47 49 50 51 51 51 51 51 50 49 47 44 43 40 39 43 45 45 46 49 50 52 53 55 57 60 62 65 68 70 71 70 72 74 76 77
13 14 14 14 14 13 12 12 12 12 13 14 15 17 18 19 21 21 22 23 24 24 25 25 26 26 26 26 26 26 27 27 28 29 29 30 30 31 32 33 35 35 36 37 39 39 40 41 43 44 45 46 47 47 47 46 45 43 42 40 39 37 36 35 35 36 40 43 45 47 50 52 54 55 57 60 62 64 67 71 74 74 74 75 76 78 80
13 14 13 13 12 11 11 12 12 13 14 16 17 18 20 20 21 22 22 23 24 24 25 25 26 26 26 26 26 26 27 27 28 28 29 30 30 31 32 33 34 35 36 37 37 38 40 41 42 42 42 40 39 38 36 35 33 32 31 31 32 33 34 35 36 37 41 45 47 50 53 54 55 57 59 62 64 65 68 72 76 77 77 78 80 82 84
13 12 11 11 10 11 12 12 13 14 16 17 18 20 20 21 22 22 23 23 24 24 25 25 26 26 26 26 27 27 28 28 29 29 30 30 31 31 32 32 33 34 35 36 37 38 38 36 35 32 31 29 29 29 29 29 29 30 31 32 33 35 36 38 39 40 43 47 50 53 56 58 58 60 62 65 66 68 68 72 78 81 81 82 85 87 90
11 10 10 10 11 12 13 13 15 16 17 18 19 20 21 21 22 23 23 24 25 25 26 27 27 27 27 28 28 28 28 29 29 29 30 30 30 31 31 32 32 33 34 35 34 31 29 26 25 25 25 26 27 28 29 30 31 32 33 35 36 38 39 41 43 45 47 50 54 56 59 61 62 63 65 67 69 71 71 73 79 84 86 87 89 91 94
9 10 10 11 12 13 14 15 16 17 18 18 19 20 21 22 23 24 25 26 26 27 28 28 28 28 28 29 29 29 29 29 29 29 29 30 30 31 31 31 32 32 31 28 24 21 20 21 22 24 25 26 28 30 31 32 34 35 37 39 40 42 45 46 48 50 52 54 57 60 62 64 65 66 68 71 72 74 75 76 79 85 89 91 93 95 97
10 11 12 13 13 14 15 16 16 17 18 19 20 21 22 23 25 26 26 27 27 28 28 28 29 29 28 29 28 28 28 29 29 29 30 30 30 30 31 30 29 25 21 17 16 17 19 21 22 24 26 28 30 32 34 36 38 40 42 44 46 48 50 52 54 55 57 58 60 62 65 67 68 70 72 75 76 79 81 81 83 88 93 95 98 100 102
12 12 13 14 14 15 16 17 18 19 20 21 22 23 24 25 26 26 27 27 28 28 28 28 28 28 28 28 28 28 28 29 29 29 30 30 30 29 28 24 19 15 13 13 15 17 19 21 23 25 27 30 33 35 37 40 42 44 46 48 50 52 54 56 58 60 62 64 66 68 70 71 73 75 77 79 81 84 86 87 88 92 96 99 101 104 106
13 13 14 15 16 16 17 18 19 20 21 23 24 25 25 26 26 27 27 27 27 28 28 28 28 28 28 28 28 28 28 29 29 29 29 29 27 23 18 13 11 11 13 15 16 18 20 23 26 28 30 32 35 37 40 42 44 46 49 51 53 55 57 60 62 64 67 68 70 73 75 77 78 80 82 83 85 88 91 92 93 95 98 102 104 107 110
13 14 15 16 17 18 19 20 21 22 23 24 25 26 26 26 26 27 27 27 27 27 28 27 27 27 27 27 28 28 29 29 29 28 26 23 18 12 9 9 10 12 15 16 18 21 23 25 28 31 33 35 37 40 42 44 46 48 51 53 55 58 60 63 65 68 70 72 74 76 78 81 83 85 86 88 89 91 94 96 98 101 102 105 107 110 113
15 16 17 17 18 19 20 21 22 23 24 24 25 26 26 27 27 27 27 27 27 27 27 26 26 27 27 28 29 29 29 28 26 23 18 13 9 7 8 10 12 14 16 19 22 24 26 28 30 33 35 37 40 42 44 47 49 51 54 56 58 61 63 66 68 70 72 75 77 79 81 84 86 88 91 93 94 96 98 100 103 106 108 110 112 115 118
16 17 18 19 20 21 21 22 23 24 24 25 26 26 26 27 27 27 26 26 26 26 26 26 27 28 29 29 30 29 27 23 19 14 10 7 6 8 10 12 15 17 19 22 24 27 29 31 33 35 37 40 42 45 48 51 53 55 58 60 62 64 67 69 71 73 75 78 81 83 84 87 89 91 93 96 99 101 103 105 107 110 114 116 118 121 124
18 19 19 20 21 22 22 23 24 24 25 26 26 26 26 26 26 26 25 25 25 26 27 28 29 30 30 29 27 24 21 16 11 7 6 6 8 10 12 15 17 20 23 25 27 29 32 34 36 38 40 43 46 48 51 54 57 60 62 65 67 68 70 72 74 77 79 81 84 86 88 91 94 96 98 100 104 107 110 111 113 115 119 122 124 126 128
19 20 20 21 22 22 23 24 25 25 26 26 26 26 26 26 25 25 25 25 26 28 29 30 31 30 28 26 22 18 14 9 6 5 6 9 10 13 15 17 20 23 25 28 30 32 34 37 39 42 44 47 50 52 55 58 61 64 66 68 71 72 74 76 78 80 83 85 87 89 91 94 99 102 104 106 109 112 115 117 120 122 125 127 129 131 132
20 20 21 22 22 23 24 25 25 26 26 26 26 26 26 25 25 26 27 27 28 29 30 31 30 27 24 20 16 12 8 6 6 7 9 11 13 15 18 20 22 25 27 29 32 34 37 40 43 45 48 51 53 56 59 62 65 67 70 72 74 75 77 79 81 83 85 88 90 92 95 99 102 106 109 111 114 116 119 122 124 127 129 131 133 134 135
20 21 22 23 23 24 25 25 26 26 26 26 26 26 26 27 27 28 29 29 30 30 30 29 25 22 18 14 10 7 6 6 8 9 11 14 16 18 21 23 25 27 30 32 35 38 41 44 47 50 52 55 58 60 63 65 68 70 72 74 76 78 80 82 84 86 88 90 92 95 98 101 105 109 112 114 117 119 122 125 127 129 130 132 133 135 135
21 22 23 24 24 25 25 26 26 26 27 27 27 28 28 29 29 30 30 30 30 30 28 24 20 16 13 10 7 7 7 9 10 12 14 17 19 21 24 26 28 31 34 36 39 42 45 48 51 54 57 60 62 64 67 69 71 73 75 77 79 81 83 84 86 89 91 93 95 97 100 104 109 112 114 116 118 120 123 126 128 130 132 133 134 135 135
22 23 23 24 25 25 26 26 27 27 28 28 29 29 30 30 30 30 30 29 28 26 23 19 16 12 10 8 8 8 10 11 13 15 17 20 21 24 26 29 31 34 37 40 43 46 49 52 55 58 60 63 65 68 70 71 73 75 77 79 81 83 86 87 88 90 93 97 99 101 103 105 109 112 115 118 120 122 124 127 130 132 134 134 134 134 133
22 23 24 24 25 26 26 27 28 28 29 29 29 30 29 29 29 28 28 27 25 22 19 16 13 10 9 9 9 11 12 14 16 18 20 22 24 27 29 32 35 38 41 44 47 50 53 56 58 61 64 66 68 70 72 74 76 78 80 82 85 87 89 90 92 93 96 99 103 106 107 108 110 114 118 121 125 126 128 130 132 134 135 134 133 131 129
22 23 24 25 25 26 27 27 28 28 28 28 28 28 28 27 26 26 25 23 21 19 16 13 11 10 10 11 11 13 15 17 19 21 23 25 28 30 33 36 38 41 44 47 50 53 56 59 61 64 67 69 71 72 74 76 78 80 83 85 88 90 92 94 96 98 100 104 107 110 113 115 117 120 123 127 129 130 131 133 134 135 134 133 131 128 124
22 23 24 25 26 26 27 27 27 27 27 26 26 26 25 25 24 23 22 20 18 16 13 12 11 11 11 13 14 16 18 20 22 24 26 29 31 34 36 39 42 45 48 51 53 56 59 62 64 67 69 71 73 74 76 78 81 83 86 89 91 94 96 99 101 103 106 109 111 114 118 121 123 126 128 131 133 134 134 135 135 134 132 129 127 124 120
23 24 25 25 26 26 26 25 25 25 24 24 24 23 23 23 22 21 20 18 16 14 12 12 12 13 14 15 17 19 21 23 25 27 30 32 35 37 40 43 45 48 51 54 56 59 62 64 67 69 71 73 75 76 79 81 84 87 89 92 94 97 100 103 106 109 111 114 116 118 122 125 128 130 132 134 136 136 136 135 133 131 128 125 121 118 115
23 24 24 24 24 24 24 23 22 22 21 21 22 22 22 22 21 20 18 17 15 13 13 13 14 15 16 18 20 22 24 26 28 31 33 36 38 41 43 46 49 51 54 56 59 62 65 67 69 71 73 75 77 79 82 85 87 89 92 94 97 100 103 107 110 113 116 118 120 121 124 127 129 132 133 134 136 136 135 132 130 127 123 120 117 114 112
23 23 23 23 23 23 22 21 20 20 20 20 20 21 21 21 20 18 17 16 14 14 14 15 16 18 19 21 23 25 27 29 32 34 36 39 41 44 46 49 51 54 57 59 62 65 68 70 71 73 75 77 80 82 85 87 89 91 94 97 100 103 106 109 112 115 118 121 123 125 126 127 129 132 133 134 134 134 132 129 125 122 119 117 114 112 111
22 22 22 21 21 21 20 20 20 20 20 20 19 20 20 20 19 18 16 15 15 16 16 18 19 21 22 24 26 28 30 32 35 37 39 41 44 46 49 52 54 57 60 62 65 68 70 71 73 75 77 80 82 85 87 89 92 94 97 99 102 105 108 112 115 118 121 124 127 129 129 130 130 132 133 133 132 131 129 126 123 119 116 114 112 110 110
21 21 20 20 20 20 20 20 19 19 20 20 19 19 20 19 18 17 17 16 17 18 19 20 21 23 25 27 29 31 33 35 37 39 42 44 47 49 52 55 58 60 63 65 68 70 71 73 75 78 80 82 85 87 89 92 95 97 100 103 106 109 111 114 117 121 124 126 128 130 131 132 132 132 131 130 129 128 126 124 121 118 114 112 111 109 109
20 20 19 19 19 19 19 19 19 19 20 20 20 20 20 19 19 18 18 18 19 20 21 22 24 26 28 29 31 33 35 37 39 42 45 47 50 53 55 58 61 63 66 68 69 71 73 75 78 80 82 85 87 89 92 94 97 100 103 106 108 111 114 116 119 122 124 127 128 129 130 131 131 130 129 128 127 125 123 121 119 117 114 112 111 110 109
19 19 18 18 19 19 19 19 19 19 20 20 20 20 20 20 20 19 20 20 21 22 24 25 26 28 30 32 34 37 39 41 43 45 48 51 53 56 59 61 64 66 68 70 71 73 75 78 80 83 85 87 89 92 95 97 100 103 105 108 111 114 117 120 122 124 125 127 128 129 129 129 129 128 127 126 125 123 121 120 118 116 114 112 110 109 108
18 18 18 18 18 19 19 19 19 19 20 20 21 21 21 21 21 21 22 23 24 25 26 27 29 31 33 34 37 39 42 44 46 49 51 54 57 59 62 64 67 68 70 71 73 75 77 80 83 85 87 90 93 95 98 101 104 106 109 112 115 119 122 125 126 127 127 127 126 126 125 124 124 124 123 122 121 120 119 118 116 114 112 110 109 107 105
18 18 18 18 18 19 19 19 20 20 20 20 21 21 22 22 23 23 24 25 26 27 28 30 31 34 35 37 39 42 44 47 49 51 54 57 59 62 64 66 68 70 72 74 76 78 80 82 85 88 90 93 96 98 101 104 107 110 113 117 120 123 125 127 128 129 128 127 126 125 124 122 121 120 118 116 115 115 115 115 114 113 111 110 109 107 105
17 18 18 19 19 19 19 20 20 20 20 21 21 22 22 23 24 25 26 27 28 30 31 32 34 36 38 40 42 44 47 49 52 54 57 59 61 63 65 67 69 72 74 76 79 81 83 85 88 91 93 96 99 102 104 108 111 114 118 121 124 126 127 128 128 128 128 128 128 128 127 126 123 120 117 114 112 111 111 111 112 111 111 110 109 107 106
18 18 19 19 19 20 20 21 21 21 21 21 21 22 23 24 25 26 28 29 30 32 34 35 37 39 41 43 46 48 50 52 55 57 59 61 63 64 66 68 71 73 76 79 81 84 87 89 92 94 97 99 102 104 107 111 114 118 121 124 125 126 126 126 126 126 126 126 126 126 126 125 123 121 119 116 114 111 110 109 109 109 109 108 107 107 106
19 19 19 19 20 20 21 21 21 22 21 22 22 23 23 24 25 27 28 30 32 33 35 37 39 41 43 46 48 50 52 54 56 58 59 61 63 65 68 70 73 76 78 81 84 87 90 93 95 98 100 102 105 108 111 114 118 120 123 124 125 125 124 123 122 122 122 121 120 120 120 120 120 119 119 117 116 114 112 110 108 107 107 107 106 105 105
19 19 19 19 20 20 21 21 21 22 22 22 23 23 24 25 26 27 29 30 32 34 36 38 40 43 45 47 49 51 52 54 56 58 60 62 65 67 70 73 76 78 81 84 87 90 93 96 98 101 103 106 109 112 115 117 120 121 123 123 122 121 120 118 117 117 117 117 117 117 116 116 117 117 117 117 116 115 113 112 109 108 106 106 106 105 104
21 20 20 20 20 21 21 21 21 22 22 23 23 24 25 25 26 27 29 30 32 34 36 38 40 42 44 46 48 50 52 54 56 59 62 65 67 70 73 75 78 81 84 87 90 93 96 98 101 103 106 109 113 115 118 119 120 121 121 120 119 118 116 115 114 113 113 114 114 114 115 115 115 116 116 116 115 113 112 111 110 108 107 106 106 104 102
22 21 21 21 21 21 21 22 22 22 22 23 23 24 25 26 27 28 29 30 32 34 36 38 40 42 44 46 48 51 53 56 59 62 65 67 70 73 75 78 81 84 87 90 93 96 98 101 104 107 110 113 116 118 119 119 119 118 116 115 114 113 112 111 111 111 111 111 111 112 113 113 113 114 114 114 113 112 110 109 108 107 107 106 105 103 101
23 22 22 22 21 21 21 22 22 22 23 24 24 25 26 27 28 29 30 32 33 35 37 39 41 43 46 49 52 54 57 60 63 65 68 71 73 76 79 82 84 87 90 93 96 99 102 105 107 110 113 115 116 117 118 117 116 114 113 111 110 109 108 108 108 108 108 108 109 110 111 111 111 111 112 112 111 110 109 107 106 105 104 103 102 101 99
25 24 24 23 23 22 23 23 23 24 24 25 26 27 28 29 30 31 33 34 36 38 40 42 45 47 50 53 56 58 61 63 66 68 71 74 77 79 82 85 87 90 93 96 99 102 105 108 111 113 114 115 116 116 116 115 113 111 110 108 107 106 106 106 106 107 107 108 108 109 109 109 110 110 110 109 109 109 108 106 105 104 102 100 99 98 96
27 27 26 25 25 25 25 25 26 26 27 28 29 30 31 32 33 35 36 38 40 42 44 46 49 51 54 56 59 61 64 66 69 72 75 78 80 83 85 88 91 94 97 100 103 106 109 111 113 114 115 115 115 114 112 110 109 108 107 106 105 105 105 106 106 107 107 107 108 108 108 108 108 108 107 107 107 107 106 105 103 102 100 98 97 95 94
29 29 28 28 28 28 28 29 29 30 30 31 32 33 34 36 37 39 41 42 44 46 48 50 52 54 57 59 62 64 67 70 73 75 78 81 83 86 89 92 95 98 102 105 108 110 112 113 114 115 115 114 112 110 108 106 105 105 104 104 104 104 104 105 106 106 107 107 107 107 107 106 106 106 106 105 105 105 105 103 101 100 98 96 94 93 92
30 30 30 30 30 31 31 32 32 33 34 34 35 36 38 39 41 42 44 46 48 50 52 53 56 58 60 62 65 68 71 74 76 79 81 84 87 90 93 96 99 103 106 109 111 113 114 114 114 113 112 110 109 106 105 104 103 103 103 104 104 105 105 106 106 107 107 107 107 107 106 105 105 105 104 104 104 104 102 101 99 97 96 94 93 92 91
31 31 31 32 32 33 33 34 35 36 37 37 38 39 40 42 43 45 47 49 51 53 55 57 59 61 64 66 69 71 74 77 80 82 85 88 91 94 98 101 104 107 109 111 113 114 115 114 112 110 108 107 106 104 102 102 102 103 104 104 105 105 106 107 107 108 108 108 107 106 106 105 105 104 104 103 102 101 100 100 98 96 95 94 93 93 93
32 32 33 33 34 34 35 36 37 38 39 39 41 42 43 44 46 48 50 52 54 56 58 60 63 65 68 71 73 76 78 81 84 87 89 92 96 99 102 105 107 110 111 113 115 115 115 113 110 107 105 103 102 100 100 101 103 104 105 105 106 106 107 108 108 108 108 107 107 106 106 105 105 104 103 101 100 99 99 98 98 97 96 95 95 94 94
33 33 34 34 35 35 36 37 38 39 40 42 43 44 46 47 49 51 53 56 58 60 62 65 67 70 73 75 78 80 83 86 89 92 95 98 101 104 106 108 110 112 114 115 116 115 113 110 108 106 104 101 100 99 99 101 104 105 106 106 106 107 107 108 108 108 107 107 107 107 106 105 104 103 101 100 99 98 97 96 96 96 95 95 95 95 95
Wind_Direction
282 285 287 287 287 285 282 280 280 279 276 274 276 279 282 285 287 287 286 288 290 294 296 297 296 294 292 289 285 283 281 281 281 281 282 282 282 282 282 282 283 284 285 286 288 289 290 291 292 292 293 293 294 294 295 296 297 298 299 300 301 302 303 303 303 304 306 306 307 308 309 310 311 310 309 309 309 310 314 317 318 319 318 314 315 322 323
283 285 286 285 283 280 279 279 277 274 272 273 275 277 280 283 285 285 286 289 293 296 297 296 295 294 293 292 290 289 287 285 284 284 283 283 284 284 284 285 286 286 287 289 290 291 291 291 291 292 293 294 295 296 297 298 299 300 301 301 302 304 304 304 306 307 307 307 308 308 309 310 310 309 308 308 309 313 316 318 318 317 317 317 318 324 327
283 284 283 280 278 277 276 274 271 270 270 272 272 274 278 280 281 283 287 291 294 295 295 295 294 294 293 293 293 292 290 289 288 287 287 287 287 287 288 288 289 289 290 291 291 291 291 290 290 292 294 296 297 298 299 300 301 302 302 303 305 306 307 307 309 310 309 307 306 305 307 308 308 307 307 309 312 316 317 317 317 317 321 323 320 322 326
281 280 278 275 274 273 270 268 267 268 268 267 268 271 274 277 281 285 290 293 294 295 295 294 294 294 294 295 294 292 291 290 290 290 289 290 290 290 290 291 291 291 291 291 290 291 291 291 292 294 296 297 298 300 301 301 302 303 304 306 307 309 309 309 310 310 310 308 306 306 307 308 309 308 309 312 316 318 317 317 318 319 324 326 320 319 322
277 274 272 270 268 266 264 264 265 264 262 263 266 271 276 281 285 289 293 295 296 296 296 296 296 295 295 295 294 293 292 292 292 292 292 292 292 291 291 291 291 291 291 291 291 292 293 294 295 297 298 299 300 301 302 303 304 305 307 307 308 309 309 309 309 310 309 308 308 309 311 312 312 311 313 317 320 320 319 319 320 320 322 323 320 319 319
271 269 266 263 260 259 260 260 259 257 259 263 269 276 282 286 290 293 296 297 297 297 297 297 296 295 295 295 295 294 294 294 294 294 293 293 292 292 292 292 291 291 292 293 293 295 296 297 299 300 301 302 303 304 305 306 306 307 307 308 308 309 310 310 310 311 309 308 310 312 314 315 314 314 320 325 324 321 320 319 319 320 321 321 321 319 318
265 261 258 255 254 255 255 253 253 256 262 268 275 283 288 292 294 297 298 298 298 297 297 297 297 297 297 296 296 296 295 295 295 294 294 294 293 293 293 293 293 294 295 296 297 298 299 301 302 303 305 305 306 307 307 306 307 307 308 309 309 312 312 311 312 313 310 309 312 315 317 318 318 321 327 328 323 321 320 319 319 320 321 321 321 320 319
255 252 250 250 250 250 249 249 254 261 269 278 285 290 294 296 298 299 299 298 298 298 298 298 297 297 298 297 297 297 296 295 295 295 295 295 295 295 295 296 297 298 299 300 301 302 303 304 305 306 307 307 306 307 306 307 308 309 310 311 312 313 314 313 314 315 311 312 317 320 320 322 323 326 327 325 322 321 321 320 319 320 321 322 321 321 321
246 246 245 244 244 245 248 254 262 271 280 287 293 295 297 298 299 299 299 298 298 298 298 298 298 298 297 298 298 297 296 296 296 296 296 297 297 298 299 300 301 302 303 304 305 306 307 307 307 307 307 307 308 308 308 309 310 310 311 312 313 314 316 317 320 321 318 319 324 324 322 323 325 326 325 323 322 321 321 320 319 320 322 322 321 321 321
242 241 239 239 242 247 256 265 274 284 290 293 295 297 298 299 299 299 298 298 298 297 297 298 297 297 297 298 298 297 297 297 298 298 299 300 300 301 302 303 304 305 306 307 307 308 308 308 308 308 310 311 311 311 312 313 314 315 316 317 318 320 324 326 329 330 325 323 325 323 321 323 325 326 325 322 321 322 322 321 319 320 322 321 320 320 320
237 236 237 241 249 259 269 278 285 291 294 295 296 297 297 298 297 297 297 296 296 296 296 296 296 296 297 297 297 297 298 298 299 300 301 302 303 304 305 306 307 308 308 308 308 309 309 311 312 314 316 318 319 320 323 324 326 327 328 328 328 330 331 332 332 330 327 324 324 323 322 323 326 326 324 321 321 323 323 321 318 319 320 320 320 321 321
234 238 245 254 264 272 280 286 291 294 295 295 295 295 295 296 295 295 295 295 294 294 294 294 294 295 296 296 298 299 301 302 304 305 306 306 307 308 308 308 308 307 308 309 311 313 315 318 320 324 329 333 334 336 338 338 338 337 335 334 334 333 333 332 331 330 328 326 326 324 323 324 327 327 323 321 322 323 323 321 318 318 320 321 322 322 322
242 251 260 267 275 280 285 289 292 293 293 294 293 293 293 294 293 293 293 293 294 294 294 295 297 298 300 302 304 306 307 308 308 308 308 308 307 307 306 306 307 308 311 314 316 319 324 329 334 339 342 342 340 341 341 339 339 338 336 335 334 333 332 332 331 330 329 328 327 325 324 325 327 326 322 321 322 323 323 322 319 318 320 321 322 323 322
256 263 269 274 279 283 287 289 290 292 292 292 291 291 291 292 292 293 294 295 296 297 298 300 302 304 306 308 309 309 309 308 307 306 305 305 304 305 306 308 311 313 315 318 324 332 337 339 341 342 341 340 339 340 340 339 338 337 335 334 334 333 332 332 331 330 330 329 327 325 324 325 326 325 322 322 324 323 323 324 322 319 320 322 322 322 321
264 269 273 277 281 285 288 289 290 290 290 290 290 290 292 293 294 296 297 298 300 301 303 305 306 307 308 307 307 307 306 305 304 303 303 304 306 308 311 313 315 316 321 328 337 342 340 338 338 339 338 339 339 339 339 338 337 336 335 334 334 333 332 331 330 329 328 328 326 325 325 325 325 324 323 324 325 324 324 325 324 321 321 322 322 322 321
270 273 277 281 283 285 286 287 288 289 290 291 292 293 295 296 297 298 299 301 303 304 305 306 305 305 305 305 305 304 303 302 302 302 304 307 310 312 313 315 317 323 332 338 340 339 336 334 335 336 336 337 337 337 336 336 335 335 334 333 332 331 330 329 328 327 327 327 326 326 326 326 325 324 325 325 325 324 325 326 324 322 321 321 321 321 320
275 277 279 281 282 284 286 288 290 292 293 294 295 295 296 297 298 300 301 303 303 303 303 304 304 303 304 303 303 302 301 301 303 305 308 311 313 313 314 318 328 334 336 336 335 335 334 332 333 334 335 335 335 334 334 333 333 333 331 331 330 329 329 328 327 327 327 327 327 326 326 325 324 325 325 325 325 324 324 325 323 322 321 320 320 320 319
276 278 280 282 284 287 290 292 293 294 295 296 296 296 297 299 300 301 302 303 302 302 303 304 303 303 302 301 301 301 302 304 307 309 311 312 313 315 321 332 337 334 332 331 330 330 331 331 331 332 333 333 332 332 331 331 330 330 329 328 328 328 328 328 327 327 327 326 326 326 326 325 324 325 325 325 324 324 323 323 322 321 320 319 319 319 318
279 282 284 287 289 292 293 294 295 295 296 296 296 297 299 300 301 302 303 303 304 304 305 304 303 302 301 301 301 303 306 308 311 312 313 314 320 329 332 333 332 329 328 328 327 328 329 330 330 330 330 330 330 329 329 328 328 328 328 327 328 328 328 327 327 327 326 326 325 326 326 324 324 324 325 324 324 323 322 322 321 321 320 320 319 319 319
284 287 289 291 293 295 296 296 295 295 295 296 297 298 300 302 303 304 305 306 306 306 305 304 302 301 301 301 304 307 310 312 313 313 316 323 331 331 328 327 326 325 325 325 326 327 327 328 328 328 327 327 327 327 327 327 327 327 327 327 328 328 328 327 327 326 326 326 325 326 326 324 323 324 324 323 323 322 322 322 321 321 320 320 320 320 320
289 291 293 294 296 296 296 295 295 296 297 298 299 301 302 304 305 306 306 306 305 304 302 301 300 300 301 305 308 310 312 313 314 315 319 323 324 323 323 323 323 323 324 325 326 326 326 325 325 325 325 325 326 326 326 326 326 327 327 327 327 328 327 327 326 326 326 326 326 326 325 324 323 323 324 323 323 322 322 322 322 322 321 321 321 321 321
292 294 295 296 296 296 296 296 297 298 299 300 301 302 303 304 304 304 303 302 302 301 300 298 299 302 306 309 311 311 311 311 311 310 311 315 317 319 319 320 322 323 324 325 324 323 323 323 323 323 324 325 325 325 326 326 327 327 327 327 327 327 327 326 326 326 326 326 326 326 325 324 323 324 324 324 323 323 322 323 323 323 322 321 321 321 321
294 295 296 296 296 297 297 298 299 299 300 300 301 301 301 301 301 300 300 300 299 298 297 298 301 305 308 308 308 307 306 301 299 302 307 311 314 315 316 319 321 322 322 321 321 321 321 321 322 323 323 324 325 326 326 327 327 327 326 326 326 326 326 326 326 326 325 325 325 326 325 324 323 323 324 323 323 323 323 323 322 322 321 321 321 320 320
296 297 297 297 298 298 298 299 299 299 299 299 300 300 300 299 299 298 298 297 295 294 295 299 304 306 305 303 301 296 289 288 294 302 307 310 312 314 315 318 319 319 319 319 319 320 320 321 322 323 324 324 325 326 327 327 326 326 326 326 325 325 325 325 325 325 325 325 325 325 325 324 323 323 323 323 323 322 322 321 321 320 320 320 319 319 320
298 298 299 299 298 298 298 298 298 298 298 298 298 298 298 298 297 296 295 294 293 294 298 302 304 301 296 292 287 281 284 291 298 303 306 309 311 313 315 316 316 317 317 318 319 320 321 321 323 324 324 325 326 326 326 326 325 325 325 325 325 324 324 324 324 324 324 324 325 325 325 324 323 323 323 322 321 321 320 319 319 319 319 319 319 319 320
299 299 298 298 298 298 297 297 297 297 297 298 298 298 298 297 296 295 294 294 295 297 300 301 298 291 285 281 278 281 288 295 299 302 305 308 310 312 312 313 314 316 317 318 319 320 322 322 323 324 325 325 326 325 325 325 325 325 324 324 324 324 323 324 324 324 324 324 324 324 324 323 321 321 320 320 319 319 319 319 318 318 319 320 320 320 320
298 297 297 297 296 296 296 296 297 298 298 299 299 299 298 298 297 296 296 296 298 300 299 294 287 280 275 274 278 285 291 295 298 301 304 307 309 310 310 312 314 316 318 319 320 321 322 323 324 324 324 324 324 324 324 324 324 324 324 323 323 323 323 323 324 324 324 323 323 323 323 322 320 319 319 319 319 319 319 319 319 319 320 320 320 320 319
297 296 296 296 296 296 297 299 300 301 301 301 301 301 300 299 299 298 298 300 300 298 292 284 276 271 271 276 282 288 292 295 298 301 303 306 307 309 311 313 315 317 318 319 320 321 322 323 323 323 323 323 323 323 323 323 323 323 323 323 323 323 323 323 324 324 323 323 323 322 322 321 321 320 320 319 319 319 319 319 319 320 320 320 320 320 320
297 298 298 299 300 301 302 303 304 304 304 304 303 302 301 300 300 300 300 300 298 291 283 274 268 268 273 280 285 289 292 295 298 301 304 306 308 310 313 315 316 318 319 319 320 321 322 322 322 322 322 322 323 323 323 323 323 323 323 323 323 323 323 324 324 324 323 323 322 322 322 321 321 320 320 319 319 319 320 319 319 320 320 320 320 320 320
301 302 303 303 304 305 305 306 307 306 306 305 304 302 301 300 301 301 300 298 293 284 274 268 268 272 278 283 287 291 294 296 299 302 305 307 310 312 315 316 317 318 318 319 320 321 321 321 321 321 322 322 322 322 322 322 323 323 323 323 323 323 323 323 323 323 323 322 322 322 321 321 320 320 320 319 319 319 319 319 319 320 320 320 320 320 321
305 306 306 307 307 308 308 309 308 308 307 305 303 302 300 299 299 299 296 292 285 276 269 268 271 276 282 286 289 292 295 298 301 304 306 309 312 314 315 316 316 317 318 319 320 320 320 320 321 321 321 321 321 322 322 323 323 323 323 323 323 323 323 323 323 323 322 322 321 321 321 320 319 319 319 318 318 318 318 319 319 320 320 320 321 322 322
309 309 310 310 310 310 310 310 309 308 307 305 303 301 300 299 298 295 290 284 276 271 269 270 274 279 283 287 291 294 297 300 303 306 308 311 312 313 314 315 316 317 318 318 319 319 320 320 320 320 320 321 321 322 323 323 323 323 323 323 323 323 323 322 322 321 321 320 320 320 319 319 318 317 317 317 317 317 318 319 319 320 321 322 322 323 324
312 312 313 312 312 312 311 311 309 308 306 305 303 300 298 297 295 290 283 276 271 269 270 272 277 282 286 290 293 296 300 302 305 307 309 310 312 313 313 314 316 316 317 318 318 319 319 319 319 320 320 321 322 323 323 323 322 322 322 322 322 322 322 321 321 320 320 320 319 319 318 318 317 316 316 316 317 318 319 320 320 321 322 323 323 324 324
315 314 314 314 313 313 312 311 310 308 306 304 302 299 296 293 290 285 279 273 270 270 272 276 280 285 289 292 295 298 301 304 306 308 309 310 311 313 313 315 316 316 317 317 318 318 318 318 319 320 321 322 323 322 322 322 322 322 322 322 321 321 321 320 320 319 319 319 318 317 317 316 316 316 316 317 318 319 320 321 321 322 323 324 324 324 324
317 316 316 316 315 314 313 312 310 308 306 303 301 297 294 290 286 282 278 274 272 273 276 280 284 288 292 296 298 300 303 305 307 308 310 311 312 313 313 314 315 315 316 316 317 317 318 319 320 321 322 322 322 321 321 321 321 321 321 321 320 320 319 319 318 318 317 317 316 316 316 316 316 316 317 318 319 320 321 321 322 323 324 324 324 325 324
319 318 317 317 316 315 314 313 311 309 306 304 301 297 293 289 286 281 278 277 276 277 279 284 288 292 295 299 301 303 305 306 308 309 310 311 312 312 313 313 314 314 315 316 316 317 319 320 321 321 321 321 321 321 321 321 321 320 320 319 319 318 318 317 317 317 316 316 316 316 316 316 316 317 318 319 320 321 321 322 322 323 324 324 324 324 323
320 320 319 319 318 318 317 315 313 310 308 304 301 297 294 290 287 284 281 280 280 281 283 287 290 294 297 300 302 303 305 306 308 309 310 310 311 312 312 313 313 314 315 316 317 319 320 321 320 320 320 321 321 321 321 320 320 320 319 318 318 318 317 317 317 316 316 316 315 315 315 316 316 317 319 320 320 321 321 322 322 323 323 323 323 323 323
322 322 321 321 321 320 319 317 315 313 310 306 302 298 295 292 288 286 284 283 283 284 286 288 291 294 297 299 301 302 304 305 307 308 309 310 310 311 312 312 313 314 316 317 319 320 320 320 320 320 320 321 321 321 320 320 319 319 318 318 318 318 318 317 317 316 316 316 316 315 316 316 317 318 319 320 320 320 321 321 322 322 322 322 323 323 323
324 323 323 323 323 322 321 320 318 315 311 308 304 300 296 293 290 288 286 286 286 286 287 289 291 293 296 298 300 302 303 305 306 307 308 309 310 311 311 313 314 316 318 319 320 320 320 320 320 320 320 321 320 320 320 319 319 319 319 319 318 318 318 317 317 317 317 317 317 317 318 318 319 319 319 319 320 320 321 321 321 322 322 322 322 323 323
328 326 325 326 325 324 323 322 321 318 315 311 308 304 300 296 293 290 289 288 288 288 289 290 291 294 296 298 300 302 304 305 306 307 308 309 310 311 313 315 317 318 319 320 320 319 319 320 320 320 320 320 320 319 319 319 319 319 319 318 318 318 318 318 318 318 318 318 318 318 318 318 319 319 320 320 320 321 321 321 322 322 322 322 322 323 323
331 329 328 328 327 325 324 324 323 321 318 315 312 308 305 302 299 296 294 292 292 291 292 292 293 295 296 298 300 302 304 305 307 308 309 310 312 314 316 318 319 319 319 319 319 319 320 320 320 320 319 319 319 319 318 319 319 319 319 318 319 319 319 319 318 318 317 317 316 316 317 318 319 319 320 320 321 321 322 322 322 322 322 322 323 323 323
334 332 330 329 328 326 326 325 324 323 321 319 316 313 311 308 305 303 301 299 297 296 296 296 297 298 299 301 302 304 306 307 309 310 312 314 316 317 319 319 319 319 319 319 319 319 319 319 319 319 319 319 318 318 318 319 319 319 319 319 319 318 318 317 316 316 315 315 316 317 318 318 319 319 320 320 321 321 322 322 323 323 323 323 323 323 323
336 334 332 331 330 328 327 326 326 324 322 321 319 317 314 312 310 307 305 303 302 301 300 300 300 301 303 304 306 307 309 310 312 314 316 317 318 319 319 318 318 319 319 319 319 319 318 318 318 318 318 318 318 318 319 319 320 320 319 318 318 317 316 316 315 315 316 316 317 318 318 319 319 319 320 320 321 321 322 322 323 323 323 323 323 322 323
337 335 333 332 332 330 329 328 327 326 324 322 320 318 316 314 312 310 308 307 306 305 305 305 306 307 308 309 311 312 314 315 317 317 318 318 318 318 318 318 318 319 319 319 318 318 318 317 317 317 318 318 319 319 319 319 319 319 318 317 316 316 316 316 316 316 317 318 318 318 319 319 319 319 320 320 321 321 322 322 322 322 323 323 323 323 323
337 336 335 334 333 331 330 329 328 326 325 323 322 320 319 317 316 315 314 313 312 312 312 313 313 314 315 316 317 318 318 318 318 318 318 318 318 318 318 318 319 318 318 318 317 317 317 317 317 318 319 319 319 319 319 319 319 318 317 316 316 316 316 316 316 317 317 318 318 319 319 319 319 320 320 321 321 321 322 322 323 323 323 323 323 323 323
336 336 335 334 333 332 331 329 328 327 326 325 323 322 321 321 320 319 318 318 317 317 317 318 318 319 319 319 319 319 318 318 318 317 317 317 318 318 318 318 318 318 317 317 317 317 317 317 318 318 319 319 319 319 319 319 318 318 317 316 316 316 316 317 317 318 318 319 319 319 319 320 320 321 321 321 321 322 322 323 323 323 323 323 323 323 323
334 334 334 333 333 332 330 329 328 327 326 325 325 324 323 323 322 322 321 321 321 320 320 320 320 320 320 319 318 318 318 317 317 317 317 318 318 318 318 317 317 317 316 316 316 317 317 318 318 319 319 320 320 320 319 319 318 318 317 317 317 317 318 318 318 319 319 320 320 320 321 321 322 322 322 322 322 322 322 323 323 323 324 324 324 323 323
331 332 332 331 330 330 329 328 327 326 326 325 325 324 324 324 323 323 322 322 321 321 321 320 320 319 318 318 318 317 317 317 317 317 317 317 317 317 317 317 317 317 317 317 318 318 318 319 320 320 320 320 320 320 320 319 319 318 318 318 318 318 319 319 319 320 320 320 321 321 322 322 322 322 323 323 323 323 323 323 324 324 324 324 323 323 323
328 328 328 328 328 327 327 326 325 325 325 325 324 324 324 323 323 322 321 321 320 320 319 319 318 318 317 317 317 317 317 317 317 317 317 317 317 316 316 317 317 317 318 318 319 319 320 320 321 321 321 321 321 321 321 321 320 319 319 319 319 320 320 320 321 321 321 322 322 323 323 323 323 323 324 324 324 324 323 323 323 324 324 324 324 324 325
325 325 325 325 325 324 324 324 324 323 323 323 323 322 322 321 321 320 319 319 319 318 318 318 317 317 317 317 317 317 317 317 317 317 317 316 316 317 317 318 318 319 319 319 320 320 320 321 321 322 322 322 322 322 322 322 321 320 320 320 321 322 322 322 322 323 323 323 324 324 324 324 324 324 324 324 324 324 324 324 324 325 325 325 326 326 326
323 323 323 322 322 322 322 321 321 321 320 320 320 319 319 319 319 318 318 318 318 317 317 317 317 317 317 317 317 317 317 317 317 316 316 316 317 318 318 319 319 320 320 321 321 321 322 322 323 323 324 324 324 324 323 322 321 321 321 322 323 323 323 323 323 324 324 324 324 325 325 325 325 325 325 325 325 325 325 325 326 326 326 327 326 326 326
321 321 320 320 320 319 319 319 318 318 318 317 317 318 318 318 318 318 318 318 317 317 317 317 317 317 318 317 317 317 317 317 317 317 317 318 319 319 320 320 321 322 322 323 323 323 323 323 324 325 325 325 325 324 324 323 323 323 323 323 324 324 324 324 324 325 325 325 325 325 325 325 325 325 325 326 326 326 326 326 326 326 327 326 326 326 326
Height
10648 10647 10646 10645 10643 10642 10641 10641 10640 10640 10640 10640 10639 10639 10638 10637 10636 10636 10636 10635 10634 10634 10633 10632 10632 10632 10631 10631 10631 10630 10630 10629 10629 10628 10628 10627 10627 10626 10625 10624 10623 10621 10620 10618 10617 10616 10614 10611 10608 10606 10605 10603 10601 10599 10596 10594 10592 10589 10587 10584 10581 10579 10577 10575 10572 10568 10563 10556 10550 10545 10542 10538 10533 10526 10518 10512 10507 10504 10502 10499 10498 10497 10492 10480 10473 10479 10478
10645 10644 10643 10642 10641 10640 10639 10639 10639 10639 10638 10638 10638 10637 10637 10636 10636 10635 10635 10634 10633 10632 10632 10631 10631 10631 10630 10630 10629 10628 10628 10627 10627 10626 10625 10624 10623 10622 10621 10620 10619 10618 10616 10614 10613 10611 10610 10608 10604 10601 10601 10599 10596 10594 10592 10589 10587 10585 10583 10580 10576 10574 10571 10567 10566 10565 10561 10554 10546 10540 10536 10532 10527 10519 10512 10506 10502 10500 10498 10494 10490 10488 10486 10475 10467 10470 10471
10642 10641 10640 10639 10638 10638 10638 10638 10638 10637 10637 10637 10637 10636 10635 10635 10635 10635 10634 10633 10632 10631 10631 10630 10630 10629 10628 10628 10627 10626 10625 10625 10624 10623 10622 10621 10620 10619 10618 10616 10615 10613 10612 10611 10608 10607 10606 10604 10601 10598 10597 10594 10592 10590 10587 10584 10582 10579 10577 10575 10572 10569 10565 10559 10556 10555 10553 10549 10543 10538 10534 10529 10523 10515 10508 10502 10500 10496 10491 10487 10483 10479 10479 10474 10461 10461 10466
10639 10638 10637 10637 10637 10636 10636 10636 10636 10636 10636 10636 10636 10635 10634 10634 10634 10633 10633 10632 10631 10630 10630 10629 10628 10627 10627 10626 10625 10624 10623 10622 10621 10620 10619 10618 10617 10615 10614 10613 10611 10609 10608 10607 10605 10603 10602 10600 10598 10595 10593 10590 10587 10585 10582 10580 10577 10574 10572 10569 10567 10565 10560 10553 10549 10546 10541 10537 10533 10530 10528 10525 10518 10511 10504 10499 10496 10492 10485 10480 10476 10472 10473 10472 10458 10452 10457
10636 10635 10635 10635 10635 10635 10635 10635 10635 10635 10635 10635 10634 10634 10633 10633 10633 10632 10631 10630 10630 10629 10628 10627 10626 10625 10624 10623 10622 10621 10620 10619 10618 10617 10616 10615 10613 10612 10611 10609 10608 10606 10605 10603 10601 10599 10597 10595 10593 10591 10589 10586 10583 10581 10578 10575 10572 10569 10566 10564 10561 10560 10556 10549 10544 10539 10532 10527 10524 10521 10520 10518 10512 10505 10500 10496 10491 10486 10479 10474 10471 10467 10466 10466 10457 10446 10445
10634 10633 10633 10634 10634 10634 10634 10634 10634 10634 10634 10633 10633 10632 10632 10632 10631 10630 10630 10629 10628 10627 10627 10626 10624 10623 10622 10621 10620 10619 10618 10616 10615 10614 10613 10612 10610 10609 10607 10606 10604 10602 10601 10599 10597 10595 10593 10591 10589 10587 10584 10582 10579 10576 10573 10570 10567 10563 10560 10557 10554 10553 10550 10544 10540 10535 10526 10519 10518 10516 10513 10510 10504 10499 10496 10493 10487 10481 10476 10469 10465 10462 10458 10457 10453 10444 10435
10632 10632 10632 10632 10632 10632 10633 10633 10633 10633 10633 10632 10631 10631 10631 10630 10630 10629 10628 10628 10627 10626 10625 10624 10622 10621 10620 10619 10617 10616 10615 10614 10613 10611 10610 10609 10607 10606 10604 10602 10601 10599 10597 10595 10594 10592 10590 10587 10585 10582 10580 10577 10574 10571 10567 10564 10561 10557 10554 10551 10548 10547 10545 10539 10536 10532 10522 10514 10512 10511 10507 10504 10498 10493 10490 10488 10481 10475 10470 10464 10459 10456 10453 10448 10444 10439 10429
10631 10631 10631 10631 10631 10632 10632 10632 10632 10632 10631 10631 10631 10630 10630 10629 10628 10628 10627 10626 10625 10624 10623 10622 10620 10619 10617 10616 10615 10614 10612 10611 10610 10608 10607 10605 10603 10602 10600 10599 10597 10595 10593 10591 10590 10588 10586 10584 10581 10578 10575 10572 10568 10566 10562 10558 10555 10551 10549 10546 10542 10541 10539 10534 10532 10528 10519 10511 10509 10505 10501 10499 10495 10490 10486 10481 10476 10469 10463 10458 10452 10449 10446 10440 10433 10429 10423
10630 10630 10630 10631 10631 10631 10632 10632 10632 10631 10631 10630 10630 10629 10629 10628 10627 10626 10625 10624 10623 10622 10621 10619 10618 10616 10615 10614 10612 10611 10610 10608 10607 10605 10604 10602 10600 10598 10596 10595 10593 10591 10590 10588 10586 10584 10582 10579 10577 10574 10571 10567 10564 10560 10557 10553 10551 10547 10544 10541 10538 10535 10533 10529 10527 10524 10516 10510 10507 10502 10497 10494 10491 10488 10483 10477 10471 10465 10457 10450 10444 10440 10439 10434 10426 10421 10416
10629 10630 10630 10630 10631 10631 10631 10631 10631 10630 10630 10629 10628 10628 10627 10626 10625 10625 10624 10622 10621 10620 10618 10617 10615 10614 10612 10611 10610 10608 10607 10605 10603 10602 10600 10599 10597 10595 10593 10591 10589 10588 10586 10584 10582 10580 10577 10574 10572 10569 10566 10563 10559 10556 10552 10549 10546 10543 10540 10537 10534 10531 10529 10526 10523 10520 10514 10508 10505 10500 10495 10492 10488 10484 10479 10472 10466 10460 10453 10443 10435 10432 10430 10426 10421 10415 10408
10630 10630 10630 10630 10630 10630 10630 10630 10630 10629 10628 10628 10627 10626 10625 10625 10624 10623 10622 10620 10619 10617 10616 10614 10613 10611 10610 10608 10606 10605 10603 10602 10600 10599 10597 10595 10593 10592 10590 10588 10586 10584 10582 10580 10577 10575 10573 10570 10567 10564 10561 10558 10555 10551 10549 10545 10542 10540 10537 10534 10531 10528 10525 10523 10520 10517 10512 10506 10501 10496 10491 10488 10486 10480 10474 10467 10461 10456 10450 10439 10428 10424 10423 10417 10411 10405 10397
10630 10630 10630 10630 10630 10630 10629 10629 10628 10627 10627 10626 10625 10624 10624 10623 10622 10620 10619 10618 10616 10615 10613 10611 10610 10608 10607 10605 10604 10602 10601 10599 10597 10596 10594 10592 10590 10588 10586 10584 10582 10580 10578 10576 10573 10571 10569 10566 10563 10561 10558 10555 10552 10549 10546 10543 10540 10537 10534 10531 10529 10525 10523 10519 10516 10513 10509 10503 10498 10493 10486 10482 10480 10475 10468 10461 10455 10451 10447 10437 10421 10413 10412 10407 10399 10393 10383
10630 10630 10630 10630 10629 10629 10628 10627 10627 10626 10625 10624 10624 10623 10621 10621 10619 10618 10617 10615 10614 10612 10610 10609 10607 10606 10604 10603 10601 10599 10598 10596 10594 10592 10590 10589 10586 10585 10583 10581 10579 10577 10574 10572 10570 10568 10565 10563 10560 10558 10555 10552 10550 10547 10544 10541 10538 10535 10532 10529 10526 10522 10519 10516 10512 10509 10505 10500 10493 10487 10481 10476 10474 10469 10461 10454 10449 10443 10440 10434 10417 10403 10399 10396 10390 10383 10373
10630 10629 10629 10629 10628 10627 10627 10626 10625 10624 10624 10623 10622 10621 10619 10618 10617 10616 10615 10613 10612 10610 10608 10606 10605 10603 10601 10600 10598 10596 10595 10593 10591 10589 10587 10585 10583 10581 10579 10577 10576 10574 10571 10569 10567 10565 10563 10560 10558 10555 10553 10550 10547 10545 10542 10539 10536 10533 10529 10525 10522 10518 10514 10511 10507 10503 10499 10495 10489 10482 10476 10470 10466 10462 10454 10448 10443 10436 10432 10430 10418 10401 10392 10387 10382 10376 10367
10629 10629 10628 10627 10627 10626 10625 10624 10623 10623 10622 10621 10620 10619 10617 10616 10615 10614 10612 10611 10609 10607 10606 10604 10602 10600 10598 10596 10595 10593 10591 10589 10587 10585 10583 10581 10580 10578 10576 10574 10572 10571 10569 10567 10565 10563 10560 10558 10556 10553 10550 10548 10544 10541 10538 10535 10532 10528 10524 10521 10517 10513 10509 10505 10501 10497 10493 10489 10484 10478 10472 10466 10460 10454 10448 10441 10436 10428 10421 10418 10410 10396 10385 10377 10371 10364 10356
10628 10627 10627 10626 10625 10624 10624 10623 10622 10621 10620 10619 10618 10617 10615 10614 10613 10611 10610 10609 10607 10605 10603 10601 10599 10597 10595 10593 10591 10589 10587 10585 10583 10581 10580 10578 10577 10575 10573 10572 10570 10568 10567 10565 10563 10561 10559 10556 10554 10551 10548 10545 10542 10539 10535 10532 10528 10524 10520 10516 10512 10508 10503 10498 10493 10489 10485 10480 10475 10468 10463 10458 10452 10445 10439 10432 10426 10417 10410 10407 10401 10388 10377 10368 10360 10353 10343
10627 10626 10625 10625 10624 10623 10622 10621 10620 10619 10618 10617 10616 10614 10613 10612 10610 10609 10607 10606 10604 10602 10599 10598 10595 10593 10591 10589 10587 10586 10584 10582 10580 10579 10577 10576 10574 10572 10571 10569 10568 10566 10565 10563 10561 10559 10557 10554 10551 10549 10546 10543 10540 10537 10533 10529 10525 10521 10516 10512 10508 10503 10498 10493 10487 10482 10476 10471 10466 10459 10451 10446 10440 10434 10428 10422 10416 10407 10399 10394 10390 10382 10371 10360 10352 10344 10333
10625 10624 10624 10623 10622 10621 10620 10619 10618 10617 10616 10615 10613 10612 10610 10609 10607 10606 10604 10602 10601 10598 10596 10594 10592 10590 10588 10586 10584 10582 10581 10579 10578 10576 10574 10573 10571 10570 10569 10568 10566 10565 10563 10561 10559 10557 10555 10552 10549 10546 10543 10540 10537 10534 10530 10526 10523 10519 10514 10509 10504 10499 10494 10488 10482 10476 10470 10463 10458 10452 10444 10436 10428 10422 10416 10410 10406 10399 10390 10382 10375 10369 10362 10353 10343 10334 10322
10624 10623 10622 10621 10620 10620 10619 10618 10616 10615 10614 10612 10611 10609 10607 10606 10604 10603 10601 10599 10597 10595 10593 10591 10589 10587 10585 10583 10581 10579 10578 10577 10575 10573 10572 10570 10569 10568 10567 10566 10565 10563 10561 10559 10557 10555 10552 10549 10546 10543 10540 10537 10534 10530 10527 10523 10519 10515 10510 10505 10500 10495 10489 10483 10477 10471 10465 10457 10451 10445 10438 10428 10419 10413 10406 10397 10392 10388 10382 10374 10364 10352 10345 10339 10330 10318 10305
10622 10621 10621 10620 10619 10618 10617 10615 10614 10613 10611 10610 10608 10606 10605 10603 10601 10600 10598 10596 10594 10592 10590 10588 10586 10584 10582 10580 10578 10577 10575 10574 10572 10571 10570 10569 10568 10567 10566 10565 10563 10561 10559 10557 10555 10552 10549 10546 10543 10540 10537 10534 10530 10526 10522 10517 10513 10510 10504 10499 10494 10489 10483 10477 10471 10465 10458 10451 10442 10436 10430 10420 10411 10406 10400 10390 10380 10374 10368 10363 10355 10341 10328 10320 10312 10300 10286
10621 10620 10619 10618 10617 10616 10614 10613 10611 10610 10608 10607 10605 10603 10602 10600 10598 10596 10595 10593 10591 10589 10586 10584 10582 10580 10579 10577 10576 10574 10573 10571 10570 10569 10569 10568 10567 10566 10565 10563 10561 10559 10557 10555 10552 10549 10546 10542 10539 10537 10534 10530 10526 10522 10518 10513 10508 10503 10497 10491 10486 10482 10476 10470 10464 10457 10450 10443 10435 10426 10419 10409 10399 10393 10390 10381 10369 10359 10351 10344 10338 10328 10314 10301 10292 10282 10270
10619 10618 10617 10616 10615 10613 10612 10610 10608 10607 10605 10603 10602 10600 10599 10597 10595 10593 10591 10590 10587 10585 10583 10581 10579 10577 10576 10574 10573 10572 10570 10570 10569 10568 10568 10567 10566 10565 10563 10561 10559 10557 10554 10552 10549 10546 10543 10539 10536 10532 10529 10526 10522 10517 10513 10508 10502 10496 10491 10485 10479 10474 10468 10462 10455 10448 10440 10433 10426 10419 10410 10398 10386 10377 10372 10365 10355 10344 10333 10323 10314 10305 10294 10281 10270 10262 10253
10617 10616 10615 10613 10612 10610 10609 10607 10605 10604 10602 10600 10599 10597 10596 10594 10592 10590 10588 10586 10584 10581 10579 10577 10576 10574 10573 10572 10571 10570 10569 10569 10568 10568 10567 10566 10564 10563 10561 10559 10557 10555 10552 10549 10546 10543 10539 10536 10532 10529 10525 10521 10517 10512 10507 10501 10495 10489 10483 10478 10472 10466 10460 10454 10447 10440 10432 10423 10415 10408 10399 10387 10375 10364 10355 10347 10338 10327 10316 10306 10297 10288 10278 10267 10255 10245 10237
10615 10613 10612 10611 10609 10607 10606 10604 10602 10601 10599 10597 10596 10594 10593 10591 10589 10587 10585 10582 10580 10578 10576 10574 10573 10572 10571 10570 10569 10569 10568 10568 10568 10567 10566 10564 10563 10561 10559 10557 10555 10552 10549 10546 10543 10540 10536 10532 10527 10523 10519 10515 10510 10506 10500 10495 10489 10483 10476 10471 10465 10458 10452 10446 10438 10430 10424 10416 10408 10399 10390 10379 10367 10359 10348 10335 10325 10314 10302 10292 10285 10277 10269 10260 10248 10237 10227
10612 10611 10609 10608 10606 10605 10603 10601 10600 10598 10596 10594 10593 10591 10589 10587 10585 10583 10581 10578 10576 10574 10573 10572 10571 10570 10569 10569 10568 10568 10568 10567 10567 10566 10564 10563 10561 10559 10556 10554 10552 10549 10546 10543 10539 10535 10531 10527 10522 10518 10513 10508 10503 10498 10493 10487 10482 10476 10470 10463 10457 10450 10443 10438 10431 10422 10413 10407 10400 10393 10384 10369 10354 10345 10338 10329 10321 10314 10303 10290 10278 10268 10259 10250 10239 10225 10212
10609 10608 10606 10605 10603 10602 10600 10598 10597 10595 10593 10591 10589 10587 10586 10584 10581 10579 10577 10575 10573 10572 10571 10570 10569 10569 10568 10568 10567 10567 10567 10566 10565 10564 10562 10561 10559 10556 10554 10551 10549 10546 10542 10539 10535 10530 10526 10522 10517 10513 10508 10502 10497 10492 10486 10480 10474 10468 10462 10455 10449 10442 10435 10429 10424 10416 10405 10396 10388 10382 10378 10368 10352 10339 10332 10324 10315 10309 10300 10286 10272 10259 10246 10236 10227 10213 10199
10607 10605 10604 10602 10601 10599 10597 10595 10594 10592 10590 10588 10586 10584 10582 10580 10577 10575 10574 10572 10571 10570 10569 10568 10568 10567 10567 10567 10567 10566 10566 10565 10564 10562 10560 10558 10556 10554 10551 10548 10545 10542 10538 10534 10529 10525 10521 10516 10511 10506 10501 10496 10491 10486 10479 10473 10467 10460 10454 10447 10440 10433 10426 10419 10413 10407 10398 10389 10379 10370 10366 10362 10351 10337 10325 10314 10302 10294 10285 10272 10259 10246 10233 10222 10213 10203 10192
10604 10603 10601 10600 10598 10596 10594 10592 10590 10588 10586 10584 10582 10580 10578 10576 10574 10573 10571 10570 10569 10568 10568 10567 10566 10566 10566 10566 10566 10565 10564 10563 10562 10560 10558 10556 10553 10551 10548 10545 10541 10538 10534 10529 10525 10520 10515 10511 10506 10501 10495 10490 10484 10478 10472 10466 10459 10452 10445 10438 10430 10422 10415 10408 10402 10395 10387 10378 10369 10358 10348 10340 10332 10321 10309 10297 10286 10277 10268 10256 10243 10231 10220 10208 10197 10187 10179
10602 10600 10598 10597 10595 10593 10591 10589 10587 10584 10583 10581 10579 10577 10575 10573 10572 10570 10569 10568 10568 10567 10566 10566 10566 10566 10565 10565 10564 10564 10562 10561 10559 10557 10555 10553 10550 10547 10544 10540 10537 10533 10529 10524 10520 10515 10510 10506 10501 10495 10489 10483 10477 10471 10464 10458 10452 10444 10436 10428 10419 10410 10402 10394 10387 10381 10373 10364 10355 10346 10335 10324 10313 10302 10290 10278 10266 10258 10251 10241 10229 10219 10209 10197 10186 10174 10164
10599 10597 10595 10593 10591 10589 10587 10586 10584 10581 10580 10578 10576 10575 10573 10571 10570 10569 10568 10567 10566 10566 10565 10565 10565 10564 10564 10563 10562 10562 10560 10558 10556 10554 10552 10549 10546 10543 10539 10536 10532 10528 10524 10519 10515 10510 10505 10500 10495 10489 10482 10476 10470 10464 10457 10450 10443 10435 10427 10418 10409 10401 10392 10382 10373 10365 10359 10350 10341 10331 10320 10307 10297 10287 10276 10263 10249 10240 10234 10226 10217 10207 10198 10187 10176 10166 10155
10596 10594 10592 10590 10588 10586 10584 10583 10581 10579 10577 10576 10574 10572 10571 10569 10568 10567 10566 10566 10565 10565 10564 10564 10564 10563 10562 10562 10560 10559 10557 10555 10553 10551 10548 10545 10542 10538 10535 10531 10527 10523 10519 10514 10509 10504 10499 10494 10489 10482 10475 10469 10462 10456 10449 10442 10434 10426 10418 10409 10401 10392 10383 10373 10362 10352 10343 10336 10330 10323 10312 10298 10283 10272 10264 10255 10242 10231 10223 10216 10206 10196 10186 10176 10164 10153 10142
10593 10591 10589 10587 10585 10584 10582 10580 10579 10577 10575 10574 10572 10571 10569 10568 10567 10566 10565 10564 10564 10564 10563 10563 10562 10561 10560 10559 10558 10556 10554 10552 10550 10547 10544 10541 10538 10534 10530 10526 10522 10518 10513 10509 10504 10498 10493 10487 10482 10476 10469 10462 10455 10448 10441 10434 10426 10418 10410 10402 10393 10384 10375 10366 10356 10347 10336 10325 10316 10310 10304 10295 10280 10265 10253 10244 10233 10222 10213 10205 10197 10186 10174 10163 10152 10140 10128
10591 10589 10587 10585 10583 10581 10580 10578 10577 10575 10573 10572 10570 10569 10567 10566 10565 10565 10564 10563 10563 10562 10562 10561 10560 10559 10558 10557 10555 10553 10551 10549 10546 10543 10540 10536 10533 10529 10525 10521 10517 10512 10507 10503 10498 10492 10486 10481 10475 10469 10462 10455 10448 10441 10434 10426 10418 10411 10403 10395 10387 10378 10368 10358 10347 10337 10327 10316 10303 10292 10284 10278 10270 10258 10244 10232 10221 10210 10199 10189 10181 10173 10163 10151 10140 10131 10120
10588 10586 10585 10583 10581 10580 10578 10576 10575 10573 10572 10570 10569 10567 10566 10565 10564 10563 10563 10562 10561 10561 10560 10559 10558 10557 10555 10554 10552 10550 10548 10545 10542 10539 10535 10532 10528 10524 10520 10515 10511 10507 10502 10497 10492 10487 10480 10474 10468 10461 10454 10447 10440 10434 10427 10419 10410 10402 10394 10385 10377 10368 10359 10349 10337 10326 10315 10305 10295 10284 10271 10261 10252 10243 10232 10220 10208 10198 10186 10174 10164 10157 10150 10141 10130 10120 10110
10586 10585 10583 10581 10580 10578 10576 10575 10573 10572 10570 10569 10567 10566 10564 10563 10562 10562 10561 10561 10560 10559 10558 10557 10556 10554 10553 10551 10549 10547 10544 10542 10538 10535 10531 10527 10523 10519 10515 10510 10505 10501 10496 10491 10486 10481 10474 10467 10460 10454 10447 10440 10434 10427 10420 10412 10404 10394 10386 10377 10368 10359 10351 10343 10334 10324 10311 10298 10286 10276 10264 10251 10238 10228 10218 10206 10194 10183 10173 10163 10152 10143 10135 10127 10117 10107 10097
10585 10583 10581 10580 10578 10576 10575 10573 10572 10570 10569 10567 10566 10564 10563 10562 10561 10560 10560 10559 10558 10557 10556 10555 10554 10552 10550 10548 10545 10542 10539 10537 10534 10530 10526 10522 10518 10513 10509 10504 10499 10495 10490 10485 10480 10474 10467 10460 10453 10446 10440 10434 10427 10419 10411 10403 10396 10387 10378 10368 10359 10349 10339 10329 10321 10313 10303 10289 10274 10261 10250 10238 10224 10212 10202 10193 10180 10168 10158 10149 10139 10131 10123 10115 10108 10100 10091
10583 10582 10580 10578 10577 10575 10573 10572 10570 10569 10567 10566 10564 10563 10562 10561 10560 10559 10558 10558 10557 10556 10554 10553 10551 10549 10547 10545 10542 10539 10535 10532 10529 10525 10521 10517 10513 10508 10503 10498 10493 10488 10483 10478 10472 10467 10460 10453 10446 10439 10432 10426 10418 10410 10401 10392 10384 10376 10368 10358 10347 10336 10324 10312 10301 10293 10285 10276 10265 10253 10242 10232 10220 10206 10194 10183 10170 10157 10146 10137 10129 10121 10113 10106 10099 10092 10083
10582 10580 10578 10577 10575 10574 10572 10571 10569 10567 10566 10564 10563 10562 10560 10559 10558 10557 10557 10556 10555 10553 10552 10551 10549 10546 10544 10542 10539 10535 10531 10528 10525 10521 10516 10512 10508 10503 10498 10492 10487 10481 10476 10470 10465 10459 10454 10447 10439 10431 10425 10417 10410 10401 10392 10382 10373 10363 10353 10343 10332 10320 10308 10295 10283 10272 10262 10254 10245 10236 10227 10220 10212 10203 10192 10181 10168 10154 10141 10129 10120 10111 10102 10093 10085 10077 10070
10580 10578 10577 10575 10574 10572 10571 10569 10568 10566 10565 10563 10562 10560 10559 10558 10557 10556 10555 10554 10553 10551 10550 10548 10546 10543 10540 10537 10535 10531 10528 10524 10520 10516 10512 10507 10503 10498 10493 10487 10480 10474 10469 10462 10456 10450 10445 10438 10431 10423 10416 10409 10401 10391 10382 10372 10362 10350 10339 10327 10316 10304 10292 10279 10265 10252 10240 10227 10214 10203 10194 10186 10182 10178 10174 10168 10162 10152 10140 10126 10113 10102 10092 10082 10072 10062 10055
10579 10577 10575 10574 10573 10571 10569 10568 10566 10565 10563 10562 10560 10559 10558 10556 10555 10554 10553 10551 10550 10549 10547 10545 10542 10539 10536 10533 10530 10526 10523 10520 10516 10512 10507 10502 10497 10492 10487 10481 10475 10469 10462 10455 10448 10441 10435 10428 10421 10414 10407 10400 10392 10382 10372 10361 10351 10339 10327 10315 10302 10290 10277 10264 10249 10236 10225 10213 10200 10187 10177 10167 10160 10154 10148 10143 10139 10135 10129 10120 10108 10095 10084 10074 10064 10053 10043
10577 10575 10574 10573 10571 10570 10568 10566 10565 10563 10561 10560 10558 10557 10556 10555 10553 10552 10550 10549 10547 10546 10544 10541 10538 10535 10532 10529 10526 10522 10518 10514 10510 10506 10501 10496 10491 10486 10480 10475 10469 10463 10456 10449 10441 10434 10426 10419 10412 10405 10398 10390 10382 10372 10362 10352 10341 10329 10316 10303 10289 10276 10264 10253 10240 10227 10215 10206 10197 10185 10174 10163 10151 10141 10133 10126 10119 10113 10107 10102 10096 10086 10073 10063 10053 10044 10034
10575 10574 10572 10571 10569 10568 10566 10565 10563 10561 10560 10558 10557 10555 10554 10552 10551 10549 10548 10546 10544 10542 10540 10537 10534 10531 10528 10525 10522 10518 10514 10509 10505 10501 10496 10490 10485 10480 10474 10468 10462 10456 10449 10442 10434 10426 10419 10411 10404 10396 10388 10379 10370 10361 10351 10341 10329 10316 10302 10289 10278 10267 10256 10246 10236 10224 10211 10199 10189 10179 10168 10157 10145 10133 10122 10114 10106 10098 10089 10082 10077 10071 10061 10051 10041 10032 10023
10574 10572 10571 10569 10568 10566 10564 10563 10561 10560 10558 10556 10555 10553 10551 10550 10549 10547 10545 10543 10540 10538 10536 10533 10530 10527 10524 10520 10517 10513 10509 10504 10500 10495 10490 10485 10479 10474 10468 10462 10456 10449 10442 10435 10427 10419 10411 10403 10396 10388 10379 10370 10360 10349 10338 10328 10317 10305 10291 10278 10266 10256 10246 10235 10225 10214 10202 10189 10177 10167 10157 10146 10135 10124 10112 10102 10095 10088 10079 10068 10059 10052 10045 10037 10028 10019 10011
10572 10570 10569 10567 10566 10564 10562 10561 10559 10557 10556 10554 10552 10551 10549 10547 10546 10544 10542 10540 10537 10534 10531 10529 10526 10523 10519 10516 10512 10508 10504 10499 10494 10489 10484 10479 10474 10468 10462 10456 10450 10443 10435 10428 10420 10411 10403 10395 10387 10378 10369 10359 10347 10336 10325 10316 10306 10296 10285 10272 10258 10245 10235 10224 10213 10203 10193 10182 10170 10159 10148 10137 10126 10115 10104 10092 10083 10076 10069 10061 10051 10041 10032 10023 10014 10005 9997
10570 10568 10567 10565 10564 10562 10560 10559 10557 10555 10553 10552 10550 10548 10546 10544 10542 10540 10538 10536 10533 10530 10527 10524 10521 10518 10515 10510 10506 10502 10498 10493 10488 10483 10478 10473 10467 10461 10455 10449 10442 10435 10427 10419 10411 10402 10393 10385 10377 10368 10359 10349 10337 10326 10315 10304 10294 10283 10272 10262 10249 10237 10225 10215 10204 10194 10185 10175 10164 10152 10141 10131 10119 10108 10096 10085 10074 10065 10057 10050 10042 10034 10024 10014 10004 9994 9984
10568 10566 10565 10563 10562 10560 10558 10557 10555 10553 10551 10549 10547 10545 10543 10541 10539 10537 10535 10532 10529 10526 10523 10520 10517 10514 10510 10506 10501 10497 10492 10487 10483 10477 10472 10466 10460 10454 10448 10441 10434 10427 10419 10411 10402 10393 10384 10375 10367 10358 10349 10338 10327 10314 10302 10291 10280 10268 10257 10246 10236 10226 10215 10204 10194 10184 10174 10164 10153 10142 10131 10120 10110 10098 10087 10076 10064 10054 10045 10037 10029 10021 10013 10005 9995 9986 9977
10566 10564 10562 10561 10559 10558 10556 10554 10552 10551 10549 10547 10545 10542 10540 10538 10536 10533 10531 10528 10525 10522 10519 10516 10513 10509 10505 10501 10496 10492 10487 10482 10476 10470 10464 10458 10453 10446 10440 10433 10426 10418 10410 10402 10393 10384 10375 10365 10356 10346 10335 10324 10313 10302 10291 10279 10267 10254 10243 10232 10222 10212 10202 10192 10181 10172 10163 10153 10142 10132 10121 10110 10099 10088 10078 10067 10056 10045 10035 10027 10018 10009 10001 9993 9984 9976 9968
10563 10562 10560 10559 10557 10555 10553 10551 10550 10548 10546 10544 10542 10540 10537 10534 10532 10529 10526 10524 10521 10518 10514 10511 10508 10504 10500 10496 10491 10486 10480 10475 10469 10463 10457 10451 10445 10438 10431 10424 10416 10407 10398 10389 10380 10370 10361 10352 10342 10331 10320 10310 10299 10289 10278 10266 10253 10241 10230 10219 10210 10201 10191 10180 10170 10160 10151 10141 10131 10121 10110 10100 10089 10078 10068 10057 10046 10035 10025 10016 10007 9999 9991 9983 9975 9967 9958
10561 10560 10558 10556 10554 10552 10551 10549 10547 10545 10543 10541 10539 10536 10534 10531 10528 10525 10522 10519 10516 10513 10510 10506 10503 10499 10494 10490 10485 10479 10473 10468 10462 10456 10449 10442 10436 10429 10422 10414 10406 10397 10387 10376 10366 10356 10347 10338 10329 10318 10306 10294 10284 10274 10263 10251 10238 10226 10215 10205 10196 10187 10177 10167 10157 10147 10137 10127 10117 10107 10098 10088 10079 10068 10058 10047 10036 10025 10015 10006 9998 9990 9981 9973 9964 9955 9946
10559 10557 10555 10554 10552 10550 10548 10546 10543 10541 10539 10537 10535 10533 10530 10527 10525 10522 10519 10515 10512 10509 10505 10501 10497 10493 10488 10483 10478 10473 10467 10460 10454 10448 10442 10434 10427 10419 10412 10403 10394 10385 10375 10364 10353 10342 10333 10324 10316 10307 10295 10281 10269 10259 10248 10235 10223 10212 10202 10193 10184 10173 10163 10152 10142 10132 10122 10113 10103 10094 10085 10075 10066 10056 10047 10038 10027 10016 10005 9995 9986 9979 9970 9960 9951 9942 9934
10557 10555 10553 10551 10549 10547 10545 10543 10541 10538 10536 10534 10532 10529 10526 10524 10521 10518 10514 10511 10507 10503 10499 10495 10490 10486 10481 10475 10470 10464 10459 10452 10446 10440 10433 10426 10418 10410 10402 10392 10383 10373 10363 10351 10338 10327 10316 10306 10298 10291 10282 10271 10259 10248 10236 10222 10209 10198 10189 10181 10171 10161 10150 10139 10129 10119 10110 10100 10091 10081 10072 10063 10053 10044 10035 10026 10017 10007 9995 9983 9972 9963 9956 9947 9938 9930 9922
10555 10553 10551 10548 10546 10544 10542 10539 10537 10535 10532 10530 10528 10525 10522 10519 10516 10513 10509 10505 10501 10497 10492 10488 10483 10478 10473 10467 10462 10456 10450 10443 10436 10429 10422 10415 10407 10398 10389 10379 10369 10358 10347 10335 10323 10311 10301 10292 10283 10274 10265 10256 10246 10236 10225 10211 10197 10185 10176 10168 10159 10149 10138 10128 10117 10108 10099 10089 10079 10069 10060 10051 10042 10033 10024 10015 10006 9997 9987 9976 9965 9955 9946 9938 9929 9920 9911